IRIDIUM 70 [-] (25342 NORAD) Tracking and Keplerian Element Data

This shows tracking and keplerian element data for the satellite.

Feedback or suggestion? Click here.




ElementValue
Catalog25342
NameIRIDIUM 70 [-]
Epoch Orbit6833
Epoch Day284.21707279
Epoch Year2018
RAAN21.7232
Inclination86.5503
Eccentricity0.006364
Argument of Perigee282.3994
Mean Anonmoly77.0197
Mean Motion16.42517631
Decay Rate0.16594638
L11 25342U 98032A 18284.21707279 .16594638 -12525-5 18070-3 0 9998
L22 25342 86.5503 21.7232 0063640 282.3994 77.0197 16.42517631 68335

Live tracking and technical data element details for IRIDIUM 70 [-] (NORAD 25342). IRIDIUM 70 [-] can be tracked NOW for your location showing map with azimuth and elevation plus other details from your city location.

Track the satellite on the map from your city or location and see movement details for azimuth, elevation, latitude, longitude, range, height, and movement on the map or in text.







IsCatalogInMostPopularTable: catalog: 25342, numindb: 46
Update: records affected: 1



GetName: 25342 IRIDIUM 70 [-]

Hit Count: updated at: Sat, 15 Dec 2018 18:27:19 GMT